Вернуться в каталог

SL-14 R/B

АктивенPO
NORAD 16496·ROCKET BODY·🇷🇺 Russia

Запущен Jan 17, 1986 с Plesetsk Cosmodrome

Loading…

Ближайшие Пролёты (ближайшие 24 часа)

TLE

СвежийSource: Space-Track

Эпоха: Sep 14, 2026, 11:35 UTC

1 16496U 86006B   26257.48288136  .00000339  00000-0  33021-4 0  9996
2 16496  82.5233  82.0710 0076402   7.8265 352.4123 14.87012502177269

Отслеживайте SL-14 R/B в реальном времени с AllMySat

Download on the App Store